SUD021 NFFN-PHNL

Flight info

Callsign SUD021
Flight time N/A
Altitude 37000
Route ALPHA KABAR A579 CEBUR/N0486F390 A579 CARRP OPACA4
Aircraft A35K/H-SDE2E3GHIJ3J4J5LM1ORWXY/LB1D1

Departure

Time 2026-05-08 14:29
Airport Nadi International Airport (NFFN)

Arrival

Time N/A
Airport Daniel K. Inouye International Airport (PHNL)
Time Latitude Longitude Altitude Speed Heading
2026-05-08 14:02 -17.75136 177.45128 60 ft 0 kts 193°
2026-05-08 14:19 -17.75129 177.45129 51 ft 0 kts 206°
2026-05-08 14:19 -17.75115 177.45139 56 ft 3 kts 238°
2026-05-08 14:20 -17.75108 177.45156 54 ft 3 kts 271°
2026-05-08 14:20 -17.75108 177.45163 51 ft 0 kts 283°
2026-05-08 14:20 -17.75107 177.45161 51 ft 2 kts 284°
2026-05-08 14:20 -17.75101 177.45134 51 ft 6 kts 284°
2026-05-08 14:21 -17.75091 177.45079 51 ft 9 kts 272°
2026-05-08 14:21 -17.75100 177.45037 54 ft 0 kts 248°
2026-05-08 14:21 -17.75105 177.45025 55 ft 4 kts 244°
2026-05-08 14:22 -17.75127 177.44990 52 ft 7 kts 229°
2026-05-08 14:22 -17.75151 177.44948 51 ft 6 kts 263°
2026-05-08 14:22 -17.75153 177.44892 60 ft 9 kts 276°
2026-05-08 14:22 -17.75139 177.44814 57 ft 13 kts 282°
2026-05-08 14:23 -17.75118 177.44711 54 ft 16 kts 275°
2026-05-08 14:23 -17.75180 177.44602 48 ft 20 kts 220°
2026-05-08 14:23 -17.75298 177.44503 48 ft 23 kts 217°
2026-05-08 14:23 -17.75434 177.44395 52 ft 26 kts 217°
2026-05-08 14:24 -17.75584 177.44275 49 ft 28 kts 217°
2026-05-08 14:24 -17.75743 177.44148 53 ft 30 kts 217°
2026-05-08 14:24 -17.75912 177.44009 48 ft 32 kts 218°
2026-05-08 14:24 -17.76095 177.43860 47 ft 34 kts 218°
2026-05-08 14:25 -17.76292 177.43702 46 ft 37 kts 218°
2026-05-08 14:25 -17.76497 177.43537 50 ft 38 kts 217°
2026-05-08 14:25 -17.76706 177.43370 49 ft 26 kts 217°
2026-05-08 14:25 -17.76839 177.43263 45 ft 26 kts 217°
2026-05-08 14:26 -17.76988 177.43143 45 ft 29 kts 217°
2026-05-08 14:26 -17.77127 177.43031 42 ft 19 kts 217°
2026-05-08 14:26 -17.77191 177.42979 44 ft 12 kts 220°
2026-05-08 14:26 -17.77243 177.42893 46 ft 15 kts 251°
2026-05-08 14:27 -17.77284 177.42856 46 ft 5 kts 170°
2026-05-08 14:27 -17.77291 177.42869 46 ft 1 kts 106°
2026-05-08 14:27 -17.77282 177.42890 46 ft 5 kts 65°
2026-05-08 14:27 -17.77255 177.42926 44 ft 8 kts 40°
2026-05-08 14:28 -17.77243 177.42936 44 ft 0 kts 38°
2026-05-08 14:29 -17.77196 177.42975 41 ft 36 kts 39°
2026-05-08 14:29 -17.76764 177.43323 50 ft 117 kts 37°
2026-05-08 14:29 -17.75941 177.43989 103 ft 177 kts 39°
2026-05-08 14:29 -17.74925 177.44756 890 ft 179 kts 33°
2026-05-08 14:30 -17.73700 177.44977 1559 ft 194 kts 351°
2026-05-08 14:30 -17.72478 177.44159 1909 ft 230 kts 307°
2026-05-08 14:30 -17.71778 177.42578 2649 ft 247 kts 295°
2026-05-08 14:30 -17.70604 177.41266 3602 ft 254 kts 331°
2026-05-08 14:31 -17.68874 177.40884 4551 ft 261 kts
2026-05-08 14:31 -17.67126 177.41490 5176 ft 271 kts 27°
2026-05-08 14:31 -17.65514 177.42585 5760 ft 281 kts 36°
2026-05-08 14:32 -17.62357 177.45157 6944 ft 292 kts 37°
2026-05-08 14:32 -17.60737 177.46409 7630 ft 293 kts 35°
2026-05-08 14:32 -17.59057 177.47622 8307 ft 294 kts 34°
2026-05-08 14:32 -17.57337 177.48797 8971 ft 296 kts 33°
2026-05-08 14:33 -17.55590 177.49950 9670 ft 298 kts 32°
2026-05-08 14:33 -17.53819 177.51097 10234 ft 304 kts 32°
2026-05-08 14:33 -17.51971 177.52289 10508 ft 320 kts 32°
2026-05-08 14:33 -17.50028 177.53543 10719 ft 336 kts 32°
2026-05-08 14:34 -17.47994 177.54859 10953 ft 350 kts 32°
2026-05-08 14:34 -17.45893 177.56221 11350 ft 358 kts 32°
2026-05-08 14:34 -17.43762 177.57605 11830 ft 363 kts 33°
2026-05-08 14:34 -17.41607 177.59005 12338 ft 366 kts 33°
2026-05-08 14:35 -17.39435 177.60416 12837 ft 370 kts 33°
2026-05-08 14:35 -17.37234 177.61846 13331 ft 373 kts 33°
2026-05-08 14:35 -17.35023 177.63281 13869 ft 375 kts 33°
2026-05-08 14:35 -17.32798 177.64727 14312 ft 378 kts 33°
2026-05-08 14:36 -17.30550 177.66187 14754 ft 382 kts 33°
2026-05-08 14:36 -17.28289 177.67655 15197 ft 384 kts 33°
2026-05-08 14:36 -17.26004 177.69139 15652 ft 388 kts 33°
2026-05-08 14:36 -17.23705 177.70630 16101 ft 391 kts 33°
2026-05-08 14:37 -17.21382 177.72136 16542 ft 394 kts 33°
2026-05-08 14:37 -17.19045 177.73652 16991 ft 397 kts 33°
2026-05-08 14:37 -17.16687 177.75179 17433 ft 400 kts 33°
2026-05-08 14:37 -17.14307 177.76721 17807 ft 405 kts 33°
2026-05-08 14:38 -17.11886 177.78289 17977 ft 414 kts 33°
2026-05-08 14:38 -17.09420 177.79886 18262 ft 419 kts 33°
2026-05-08 14:38 -17.06929 177.81498 18581 ft 423 kts 33°
2026-05-08 14:38 -17.04416 177.83123 18897 ft 426 kts 32°
2026-05-08 14:39 -17.01889 177.84757 19214 ft 429 kts 33°
2026-05-08 14:39 -16.99386 177.86375 19528 ft 432 kts 33°
2026-05-08 14:39 -16.96815 177.88037 19848 ft 435 kts 33°
2026-05-08 14:39 -16.94243 177.89712 20150 ft 438 kts 33°
2026-05-08 14:40 -16.91654 177.91397 20465 ft 441 kts 33°
2026-05-08 14:40 -16.89036 177.93086 20770 ft 443 kts 32°
2026-05-08 14:40 -16.86397 177.94783 21085 ft 446 kts 32°
2026-05-08 14:40 -16.83746 177.96487 21387 ft 449 kts 32°
2026-05-08 14:41 -16.81077 177.98203 21689 ft 452 kts 32°
2026-05-08 14:41 -16.78393 177.99931 21983 ft 455 kts 32°
2026-05-08 14:41 -16.75692 178.01671 22279 ft 458 kts 33°
2026-05-08 14:41 -16.72975 178.03421 22565 ft 460 kts 32°
2026-05-08 14:42 -16.70244 178.05181 22855 ft 463 kts 32°
2026-05-08 14:42 -16.67492 178.06953 23133 ft 466 kts 33°
2026-05-08 14:42 -16.64720 178.08738 23383 ft 469 kts 33°
2026-05-08 14:42 -16.61935 178.10531 23651 ft 472 kts 32°
2026-05-08 14:43 -16.59139 178.12330 23917 ft 473 kts 32°
2026-05-08 14:43 -16.56332 178.14136 24178 ft 475 kts 32°
2026-05-08 14:43 -16.53517 178.15945 24433 ft 476 kts 32°
2026-05-08 14:43 -16.50688 178.17763 24687 ft 478 kts 32°
2026-05-08 14:44 -16.47859 178.19580 24928 ft 479 kts 32°
2026-05-08 14:44 -16.45011 178.21409 25175 ft 481 kts 32°
2026-05-08 14:44 -16.42156 178.23242 25424 ft 483 kts 32°
2026-05-08 14:44 -16.39292 178.25080 25672 ft 484 kts 32°
2026-05-08 14:45 -16.36419 178.26923 25909 ft 486 kts 32°
2026-05-08 14:45 -16.33539 178.28771 26148 ft 487 kts 32°
2026-05-08 14:45 -16.30653 178.30621 26432 ft 488 kts 32°
2026-05-08 14:45 -16.27755 178.32479 26688 ft 489 kts 31°
2026-05-08 14:46 -16.24849 178.34340 26899 ft 491 kts 31°
2026-05-08 14:46 -16.21935 178.36207 27145 ft 493 kts 31°
2026-05-08 14:46 -16.19013 178.38077 27380 ft 494 kts 31°
2026-05-08 14:46 -16.16081 178.39953 27613 ft 496 kts 31°
2026-05-08 14:47 -16.13139 178.41836 27850 ft 497 kts 31°
2026-05-08 14:47 -16.10228 178.43698 28084 ft 499 kts 31°
2026-05-08 14:47 -16.07267 178.45590 28316 ft 500 kts 31°
2026-05-08 14:47 -16.04298 178.47488 28550 ft 502 kts 31°
2026-05-08 14:48 -16.01320 178.49390 28767 ft 504 kts 31°
2026-05-08 14:48 -15.98328 178.51301 28968 ft 505 kts 31°
2026-05-08 14:48 -15.95337 178.53211 29311 ft 505 kts 31°
2026-05-08 14:48 -15.92340 178.55124 29565 ft 506 kts 31°
2026-05-08 14:49 -15.89339 178.57039 29776 ft 508 kts 31°
2026-05-08 14:49 -15.86317 178.58966 30010 ft 510 kts 31°
2026-05-08 14:49 -15.83292 178.60894 30221 ft 511 kts 31°
2026-05-08 14:49 -15.81240 178.62202 30350 ft 513 kts 31°
2026-05-08 14:50 -15.77206 178.64772 30607 ft 515 kts 31°
2026-05-08 14:50 -15.74142 178.66723 30814 ft 517 kts 31°
2026-05-08 14:50 -15.71074 178.68677 31009 ft 519 kts 31°
2026-05-08 14:50 -15.67995 178.70636 31212 ft 521 kts 31°
2026-05-08 14:51 -15.64897 178.72607 31412 ft 522 kts 31°
2026-05-08 14:51 -15.61800 178.74577 31649 ft 522 kts 31°
2026-05-08 14:51 -15.58702 178.76546 31906 ft 523 kts 31°
2026-05-08 14:51 -15.55593 178.78522 32072 ft 525 kts 31°
2026-05-08 14:52 -15.52474 178.80503 32246 ft 527 kts 31°
2026-05-08 14:52 -15.46205 178.84484 32592 ft 530 kts 31°
2026-05-08 14:52 -15.43065 178.86476 32757 ft 532 kts 31°
2026-05-08 14:53 -15.39897 178.88485 32940 ft 533 kts 31°
2026-05-08 14:53 -15.36738 178.90489 33211 ft 532 kts 31°
2026-05-08 14:53 -15.33588 178.92486 33478 ft 531 kts 31°
2026-05-08 14:53 -15.30430 178.94487 33741 ft 531 kts 31°
2026-05-08 14:54 -15.27280 178.96483 34015 ft 530 kts 31°
2026-05-08 14:54 -15.24157 178.98479 34405 ft 526 kts 31°
2026-05-08 14:54 -15.21063 179.00485 34752 ft 523 kts 31°
2026-05-08 14:54 -15.17987 179.02491 35033 ft 522 kts 31°
2026-05-08 14:55 -15.14921 179.04493 35327 ft 521 kts 31°
2026-05-08 14:55 -15.11859 179.06489 35610 ft 519 kts 31°
2026-05-08 14:55 -15.08803 179.08477 35906 ft 518 kts 31°
2026-05-08 14:55 -15.05800 179.10428 36185 ft 517 kts 31°
2026-05-08 14:56 -15.02711 179.12433 36476 ft 516 kts 31°
2026-05-08 14:56 -14.99716 179.14373 36754 ft 514 kts 31°
2026-05-08 14:56 -14.96645 179.16363 36937 ft 515 kts 31°
2026-05-08 14:57 -14.90594 179.20279 36947 ft 518 kts 31°
2026-05-08 14:57 -14.84492 179.24228 36955 ft 517 kts 31°
2026-05-08 14:58 -14.78385 179.28177 36952 ft 518 kts 31°
2026-05-08 14:58 -14.72280 179.32123 36952 ft 518 kts 31°
2026-05-08 14:59 -14.66172 179.36068 36952 ft 518 kts 31°
2026-05-08 14:59 -14.57008 179.41981 36952 ft 518 kts 31°
2026-05-08 15:00 -14.51887 179.45283 36954 ft 518 kts 31°
2026-05-08 15:00 -14.45772 179.49223 36955 ft 518 kts 31°
2026-05-08 15:01 -14.39663 179.53157 36952 ft 518 kts 31°
2026-05-08 15:01 -14.33589 179.57066 36950 ft 518 kts 31°
2026-05-08 15:02 -14.27479 179.60996 36950 ft 518 kts 31°
2026-05-08 15:02 -14.21361 179.64928 36943 ft 519 kts 31°
2026-05-08 15:03 -14.15246 179.68856 36950 ft 517 kts 31°
2026-05-08 15:03 -14.09139 179.72776 36950 ft 517 kts 31°
2026-05-08 15:04 -14.03037 179.76690 36951 ft 517 kts 31°
2026-05-08 15:04 -13.96931 179.80605 36949 ft 517 kts 31°
2026-05-08 15:05 -13.90829 179.84514 36947 ft 517 kts 31°
2026-05-08 15:05 -13.84724 179.88423 36943 ft 517 kts 31°
2026-05-08 15:06 -13.78622 179.92328 36949 ft 516 kts 31°
2026-05-08 15:06 -13.72525 179.96226 36932 ft 516 kts 31°
2026-05-08 15:07 -13.66425 -179.99876 36947 ft 516 kts 31°
2026-05-08 15:07 -13.60327 -179.95981 36939 ft 516 kts 31°
2026-05-08 15:08 -13.54222 -179.92084 36936 ft 516 kts 31°
2026-05-08 15:08 -13.47334 -179.87691 36934 ft 516 kts 31°
2026-05-08 15:09 -13.41236 -179.83804 36941 ft 516 kts 31°
2026-05-08 15:09 -13.35144 -179.79923 36938 ft 515 kts 31°
2026-05-08 15:10 -13.29585 -179.76383 36935 ft 516 kts 31°
2026-05-08 15:10 -13.23489 -179.72504 36938 ft 516 kts 31°
2026-05-08 15:11 -13.17386 -179.68623 36929 ft 516 kts 31°
2026-05-08 15:11 -13.11292 -179.64750 36931 ft 515 kts 30°
2026-05-08 15:12 -13.05198 -179.60878 36926 ft 515 kts 30°
2026-05-08 15:12 -12.99102 -179.57008 36928 ft 515 kts 30°
2026-05-08 15:13 -12.93043 -179.53164 36925 ft 515 kts 30°
2026-05-08 15:13 -12.86947 -179.49299 36926 ft 515 kts 30°
2026-05-08 15:14 -12.80852 -179.45437 36922 ft 515 kts 30°
2026-05-08 15:14 -12.74751 -179.41572 36922 ft 515 kts 30°
2026-05-08 15:15 -12.68653 -179.37712 36925 ft 516 kts 30°
2026-05-08 15:15 -12.62544 -179.33848 36925 ft 516 kts 30°
2026-05-08 15:16 -12.56443 -179.29990 36922 ft 516 kts 30°
2026-05-08 15:16 -12.50333 -179.26129 36922 ft 516 kts 30°
2026-05-08 15:17 -12.44225 -179.22271 36920 ft 516 kts 30°
2026-05-08 15:17 -12.38114 -179.18414 36918 ft 516 kts 30°
2026-05-08 15:18 -12.32047 -179.14586 36917 ft 516 kts 30°
2026-05-08 15:18 -12.25931 -179.10730 36917 ft 517 kts 30°
2026-05-08 15:19 -12.19813 -179.06875 36914 ft 516 kts 30°
2026-05-08 15:19 -12.13696 -179.03022 36914 ft 516 kts 30°
2026-05-08 15:20 -12.07580 -178.99172 36917 ft 516 kts 30°
2026-05-08 15:20 -12.01460 -178.95322 36910 ft 516 kts 30°
2026-05-08 15:21 -11.95341 -178.91474 36911 ft 517 kts 30°
2026-05-08 15:21 -11.89220 -178.87627 36911 ft 517 kts 30°
2026-05-08 15:22 -11.83097 -178.83781 36912 ft 517 kts 30°
2026-05-08 15:22 -11.76973 -178.79937 36911 ft 517 kts 30°
2026-05-08 15:23 -11.70849 -178.76094 36908 ft 517 kts 30°
2026-05-08 15:23 -11.64719 -178.72250 36907 ft 517 kts 30°
2026-05-08 15:24 -11.58599 -178.68413 36906 ft 516 kts 30°
2026-05-08 15:24 -11.52482 -178.64582 36906 ft 516 kts 30°
2026-05-08 15:25 -11.46367 -178.60752 36906 ft 516 kts 30°
2026-05-08 15:25 -11.40249 -178.56924 36906 ft 516 kts 30°
2026-05-08 15:26 -11.34132 -178.53098 36903 ft 516 kts 30°
2026-05-08 15:26 -11.28056 -178.49299 36896 ft 516 kts 30°
2026-05-08 15:27 -11.21947 -178.45481 36901 ft 514 kts 30°
2026-05-08 15:27 -11.15849 -178.41673 36900 ft 514 kts 30°
2026-05-08 15:28 -11.09746 -178.37863 36900 ft 514 kts 30°
2026-05-08 15:28 -11.03640 -178.34053 36900 ft 514 kts 30°
2026-05-08 15:29 -10.97536 -178.30247 36897 ft 514 kts 30°
2026-05-08 15:29 -10.91433 -178.26443 36897 ft 514 kts 30°
2026-05-08 15:30 -10.85327 -178.22638 36898 ft 515 kts 30°
2026-05-08 15:30 -10.79223 -178.18837 36897 ft 515 kts 30°
2026-05-08 15:31 -10.73119 -178.15038 36895 ft 514 kts 30°
2026-05-08 15:31 -10.67014 -178.11240 36894 ft 514 kts 30°
2026-05-08 15:32 -10.60909 -178.07444 36895 ft 514 kts 30°
2026-05-08 15:32 -10.54804 -178.03649 36890 ft 514 kts 30°
2026-05-08 15:33 -10.48703 -177.99859 36892 ft 514 kts 30°
2026-05-08 15:33 -10.42599 -177.96069 36892 ft 514 kts 30°
2026-05-08 15:34 -10.36501 -177.92284 36892 ft 514 kts 30°
2026-05-08 15:34 -10.30400 -177.88499 36892 ft 514 kts 30°
2026-05-08 15:35 -10.24303 -177.84719 36889 ft 514 kts 30°
2026-05-08 15:35 -10.18201 -177.80937 36888 ft 514 kts 30°
2026-05-08 15:36 -10.13135 -177.77799 36889 ft 513 kts 30°
2026-05-08 15:36 -10.06063 -177.73419 36889 ft 513 kts 30°
2026-05-08 15:37 -9.99974 -177.69651 36889 ft 513 kts 30°
2026-05-08 15:37 -9.93879 -177.65886 36889 ft 513 kts 30°
2026-05-08 15:38 -9.88775 -177.62731 36889 ft 513 kts 30°
2026-05-08 15:38 -9.82673 -177.58960 36889 ft 513 kts 30°
2026-05-08 15:39 -9.76623 -177.55225 36886 ft 512 kts 30°
2026-05-08 15:39 -9.70548 -177.51476 36886 ft 511 kts 30°
2026-05-08 15:40 -9.64429 -177.47702 36884 ft 511 kts 30°
2026-05-08 15:40 -9.58347 -177.43953 36884 ft 511 kts 30°
2026-05-08 15:41 -9.52270 -177.40207 36884 ft 511 kts 30°
2026-05-08 15:41 -9.46231 -177.36487 36884 ft 511 kts 30°
2026-05-08 15:42 -9.40155 -177.32746 36884 ft 511 kts 30°
2026-05-08 15:42 -9.34075 -177.29004 36884 ft 512 kts 30°
2026-05-08 15:43 -9.27988 -177.25258 36884 ft 512 kts 30°
2026-05-08 15:43 -9.21895 -177.21511 36881 ft 512 kts 30°
2026-05-08 15:44 -9.15805 -177.17767 36883 ft 512 kts 30°
2026-05-08 15:44 -9.09712 -177.14023 36884 ft 512 kts 30°
2026-05-08 15:45 -9.03624 -177.10284 36883 ft 512 kts 30°
2026-05-08 15:45 -8.97541 -177.06549 36881 ft 511 kts 30°
2026-05-08 15:46 -8.91459 -177.02816 36884 ft 511 kts 30°
2026-05-08 15:46 -8.85377 -176.99084 36884 ft 511 kts 30°
2026-05-08 15:47 -8.79296 -176.95355 36881 ft 511 kts 30°
2026-05-08 15:47 -8.73206 -176.91622 36881 ft 512 kts 30°
2026-05-08 15:48 -8.64062 -176.86018 36881 ft 512 kts 30°
2026-05-08 15:49 -8.57979 -176.82293 36882 ft 511 kts 30°
2026-05-08 15:49 -8.51894 -176.78567 36881 ft 511 kts 30°
2026-05-08 15:50 -8.45807 -176.74843 36884 ft 511 kts 30°
2026-05-08 15:50 -8.39726 -176.71122 36884 ft 511 kts 30°
2026-05-08 15:51 -8.33640 -176.67400 36884 ft 511 kts 30°
2026-05-08 15:51 -8.27556 -176.63681 36884 ft 511 kts 30°
2026-05-08 15:52 -8.21472 -176.59963 36884 ft 511 kts 30°
2026-05-08 15:52 -8.15391 -176.56249 36882 ft 511 kts 30°
2026-05-08 15:53 -8.09306 -176.52533 36883 ft 511 kts 30°
2026-05-08 15:53 -8.03229 -176.48823 36881 ft 511 kts 30°
2026-05-08 15:54 -7.97146 -176.45111 36882 ft 511 kts 30°
2026-05-08 15:54 -7.91064 -176.41402 36881 ft 510 kts 30°
2026-05-08 15:55 -7.84994 -176.37700 36880 ft 510 kts 30°
2026-05-08 15:55 -7.75884 -176.32147 36879 ft 510 kts 30°
2026-05-08 15:56 -7.69805 -176.28443 36880 ft 510 kts 30°
2026-05-08 15:56 -7.63776 -176.24772 36880 ft 510 kts 30°
2026-05-08 15:57 -7.57698 -176.21071 36884 ft 510 kts 30°
2026-05-08 15:57 -7.51630 -176.17378 36879 ft 509 kts 30°
2026-05-08 15:58 -7.45576 -176.13694 36881 ft 508 kts 30°
2026-05-08 15:58 -7.39528 -176.10015 36880 ft 508 kts 30°
2026-05-08 15:59 -7.33478 -176.06336 36881 ft 508 kts 30°
2026-05-08 15:59 -7.27429 -176.02659 36881 ft 508 kts 30°
2026-05-08 16:00 -7.21379 -175.98983 36884 ft 508 kts 30°
2026-05-08 16:00 -7.15320 -175.95303 36884 ft 508 kts 30°
2026-05-08 16:01 -7.09266 -175.91626 36879 ft 508 kts 30°
2026-05-08 16:01 -7.03217 -175.87953 36879 ft 508 kts 30°
2026-05-08 16:02 -6.97164 -175.84280 36878 ft 508 kts 30°
2026-05-08 16:02 -6.91113 -175.80609 36878 ft 508 kts 30°
2026-05-08 16:03 -6.85061 -175.76938 36879 ft 508 kts 30°
2026-05-08 16:03 -6.79009 -175.73269 36875 ft 508 kts 30°
2026-05-08 16:04 -6.72952 -175.69597 36878 ft 508 kts 30°
2026-05-08 16:04 -6.66894 -175.65926 36878 ft 508 kts 30°
2026-05-08 16:05 -6.60877 -175.62280 36877 ft 508 kts 30°
2026-05-08 16:05 -6.54822 -175.58613 36878 ft 508 kts 30°
2026-05-08 16:06 -6.48764 -175.54945 36873 ft 508 kts 30°
2026-05-08 16:06 -6.42707 -175.51279 36873 ft 508 kts 30°
2026-05-08 16:07 -6.36641 -175.47608 36871 ft 509 kts 30°
2026-05-08 16:07 -6.30570 -175.43936 36873 ft 509 kts 30°
2026-05-08 16:08 -6.24495 -175.40262 36873 ft 510 kts 30°
2026-05-08 16:08 -6.18421 -175.36589 36873 ft 510 kts 30°
2026-05-08 16:09 -6.13372 -175.33537 36876 ft 510 kts 30°
2026-05-08 16:09 -6.06267 -175.29243 36876 ft 510 kts 30°
2026-05-08 16:10 -6.00191 -175.25573 36875 ft 510 kts 30°
2026-05-08 16:10 -5.94112 -175.21901 36876 ft 510 kts 30°
2026-05-08 16:11 -5.88040 -175.18234 36873 ft 510 kts 30°
2026-05-08 16:11 -5.81997 -175.14587 36872 ft 510 kts 30°
2026-05-08 16:12 -5.75919 -175.10919 36870 ft 510 kts 30°
2026-05-08 16:12 -5.69840 -175.07251 36870 ft 510 kts 30°
2026-05-08 16:13 -5.63760 -175.03583 36869 ft 510 kts 30°
2026-05-08 16:13 -5.57631 -174.99887 36870 ft 511 kts 30°
2026-05-08 16:14 -5.51584 -174.96241 36873 ft 511 kts 30°
2026-05-08 16:14 -5.45492 -174.92569 36870 ft 511 kts 30°
2026-05-08 16:15 -5.39398 -174.88896 36873 ft 511 kts 30°
2026-05-08 16:15 -5.33306 -174.85226 36874 ft 511 kts 30°
2026-05-08 16:16 -5.27216 -174.81558 36870 ft 510 kts 30°
2026-05-08 16:16 -5.21130 -174.77893 36871 ft 510 kts 30°
2026-05-08 16:17 -5.16070 -174.74847 36870 ft 510 kts 30°
2026-05-08 16:17 -5.08961 -174.70567 36870 ft 510 kts 30°
2026-05-08 16:18 -5.02869 -174.66902 36870 ft 510 kts 30°
2026-05-08 16:18 -4.96791 -174.63232 36870 ft 510 kts 31°
2026-05-08 16:19 -4.90756 -174.59482 36870 ft 510 kts 31°
2026-05-08 16:19 -4.84729 -174.55717 36868 ft 510 kts 31°
2026-05-08 16:20 -4.78695 -174.51965 36867 ft 510 kts 31°
2026-05-08 16:20 -4.72653 -174.48220 36867 ft 510 kts 31°
2026-05-08 16:21 -4.66614 -174.44479 36864 ft 510 kts 31°
2026-05-08 16:21 -4.60571 -174.40737 36864 ft 510 kts 31°
2026-05-08 16:22 -4.55553 -174.37630 36864 ft 510 kts 31°
2026-05-08 16:22 -4.48544 -174.33290 36863 ft 508 kts 31°
2026-05-08 16:23 -4.42531 -174.29567 36865 ft 508 kts 31°
2026-05-08 16:23 -4.36522 -174.25848 36864 ft 507 kts 31°
2026-05-08 16:24 -4.30533 -174.22141 36864 ft 506 kts 31°
2026-05-08 16:24 -4.24548 -174.18439 36862 ft 506 kts 31°
2026-05-08 16:25 -4.19572 -174.15360 36864 ft 506 kts 31°
2026-05-08 16:25 -4.13584 -174.11657 36864 ft 505 kts 31°
2026-05-08 16:26 -4.07618 -174.07968 36864 ft 504 kts 31°
2026-05-08 16:26 -4.01648 -174.04277 36869 ft 504 kts 31°
2026-05-08 16:27 -3.95682 -174.00589 36868 ft 504 kts 31°
2026-05-08 16:27 -3.89716 -173.96901 36867 ft 504 kts 31°
2026-05-08 16:28 -3.83747 -173.93213 36868 ft 504 kts 31°
2026-05-08 16:28 -3.77779 -173.89526 36860 ft 504 kts 31°
2026-05-08 16:29 -3.71817 -173.85842 36867 ft 503 kts 31°
2026-05-08 16:29 -3.65856 -173.82161 36866 ft 503 kts 31°
2026-05-08 16:30 -3.59899 -173.78481 36868 ft 503 kts 31°
2026-05-08 16:30 -3.53942 -173.74803 36869 ft 503 kts 31°
2026-05-08 16:31 -3.47978 -173.71121 36868 ft 503 kts 31°
2026-05-08 16:31 -3.42022 -173.67445 36869 ft 503 kts 31°
2026-05-08 16:32 -3.36066 -173.63768 36871 ft 503 kts 31°
2026-05-08 16:32 -3.30103 -173.60089 36870 ft 503 kts 31°
2026-05-08 16:33 -3.24141 -173.56410 36870 ft 503 kts 31°
2026-05-08 16:33 -3.18181 -173.52733 36872 ft 503 kts 31°
2026-05-08 16:34 -3.12229 -173.49062 36870 ft 502 kts 31°
2026-05-08 16:34 -3.06288 -173.45397 36875 ft 501 kts 31°
2026-05-08 16:35 -3.00352 -173.41737 36874 ft 501 kts 31°
2026-05-08 16:35 -2.94435 -173.38089 36876 ft 499 kts 31°
2026-05-08 16:36 -2.88524 -173.34445 36875 ft 499 kts 31°
2026-05-08 16:36 -2.82613 -173.30801 36876 ft 499 kts 31°
2026-05-08 16:37 -2.76704 -173.27158 36876 ft 499 kts 31°
2026-05-08 16:37 -2.70833 -173.23540 36876 ft 499 kts 31°
2026-05-08 16:38 -2.64926 -173.19900 36879 ft 499 kts 31°
2026-05-08 16:38 -2.59023 -173.16263 36876 ft 498 kts 31°
2026-05-08 16:39 -2.53128 -173.12631 36878 ft 498 kts 31°
2026-05-08 16:39 -2.47228 -173.08996 36878 ft 498 kts 31°
2026-05-08 16:40 -2.41324 -173.05360 36879 ft 498 kts 31°
2026-05-08 16:40 -2.35422 -173.01725 36878 ft 498 kts 31°
2026-05-08 16:41 -2.29522 -172.98091 36872 ft 498 kts 31°
2026-05-08 16:42 -2.20673 -172.92644 36879 ft 497 kts 32°
2026-05-08 16:42 -2.14783 -172.89017 36879 ft 497 kts 32°
2026-05-08 16:43 -2.08889 -172.85388 36878 ft 497 kts 32°
2026-05-08 16:43 -2.03000 -172.81763 36879 ft 497 kts 32°
2026-05-08 16:44 -1.97150 -172.78162 36881 ft 497 kts 32°
2026-05-08 16:44 -1.91259 -172.74537 36882 ft 497 kts 32°
2026-05-08 16:45 -1.85369 -172.70912 36878 ft 497 kts 32°
2026-05-08 16:45 -1.79481 -172.67289 36879 ft 496 kts 32°
2026-05-08 16:46 -1.73601 -172.63670 36878 ft 496 kts 32°
2026-05-08 16:46 -1.69454 -172.61119 36879 ft 497 kts 32°